FW7501 Weather Reports


time (UTC)temp
F
wind
direction
speed
knots
gust
knots
rain 1hr
in
rain 24hr
in
rain mn
in
humidity
%
barometer
mb
20260504221011 51 320 0.9 5.2 0.00 0.03 0.00 85 1020.0
20260504220508 51 322 2.6 5.2 0.00 0.03 0.00 85 1020.0
20260504220029 51 314 0.9 4.3 0.00 0.03 0.00 85 1019.9
20260504215509 51 25 0.9 3.5 0.00 0.03 0.00 84 1019.8
20260504215010 51 341 0.9 4.3 0.00 0.03 0.00 84 1019.7
20260504214006 51 337 2.6 4.3 0.00 0.03 0.00 84 1019.4
20260504213509 51 15 2.6 4.3 0.00 0.03 0.00 84 1019.2
20260504213019 51 8 0.0 2.6 0.00 0.03 0.00 84 1019.1
20260504212510 51 8 0.0 4.3 0.00 0.03 0.00 84 1019.2
20260504212005 51 352 2.6 4.3 0.00 0.03 0.00 84 1019.2
20260504211507 51 324 2.6 3.5 0.00 0.03 0.00 84 1019.2
20260504211004 51 311 1.7 4.3 0.00 0.03 0.00 84 1019.1
20260504210505 51 304 0.9 4.3 0.00 0.03 0.00 84 1019.1
20260504210008 51 240 0.0 3.5 0.00 0.03 0.00 84 1019.1
20260504205504 51 240 0.0 5.2 0.00 0.03 0.00 84 1018.9
20260504204514 50 359 2.6 4.3 0.00 0.03 0.00 84 1018.6
20260504204008 50 4 1.7 5.2 0.00 0.03 0.00 84 1018.5
20260504203505 50 5 1.7 5.2 0.00 0.03 0.00 84 1018.4
20260504203020 50 13 2.6 4.3 0.00 0.03 0.00 84 1018.3
20260504202505 50 342 2.6 5.2 0.00 0.03 0.00 84 1018.2
20260504202010 50 348 2.6 6.1 0.00 0.03 0.00 84 1018.1
20260504201519 50 324 1.7 6.1 0.00 0.03 0.00 84 1018.1
20260504201003 50 338 1.7 5.2 0.00 0.03 0.00 83 1017.9
20260504200510 51 345 1.7 8.7 0.00 0.03 0.00 83 1017.9
20260504200010 51 14 3.5 8.7 0.00 0.03 0.00 83 1017.9
20260504195506 51 355 3.5 5.2 0.00 0.03 0.00 83 1017.8
20260504195004 51 2 2.6 6.1 0.00 0.03 0.00 83 1017.7
20260504194520 51 5 2.6 6.1 0.00 0.03 0.00 83 1017.7
20260504194009 51 344 2.6 6.1 0.00 0.03 0.00 83 1017.6
20260504193505 51 343 2.6 5.2 0.00 0.03 0.00 83 1017.7
20260504193017 51 341 1.7 5.2 0.00 0.03 0.00 82 1017.7
20260504192508 51 17 1.7 5.2 0.00 0.03 0.00 82 1017.5
20260504192009 51 343 3.5 6.1 0.00 0.03 0.00 82 1017.6
20260504191527 51 348 4.3 7.0 0.00 0.03 0.00 82 1017.4
20260504191009 51 20 3.5 7.0 0.00 0.03 0.00 81 1017.4
20260504190508 51 333 3.5 6.1 0.00 0.03 0.00 81 1017.3
20260504190024 51 8 3.5 6.1 0.00 0.03 0.00 81 1017.3
20260504185007 51 16 2.6 6.1 0.00 0.03 0.00 81 1017.2
20260504184010 51 351 2.6 6.1 0.00 0.03 0.00 81 1017.0
20260504183504 51 13 3.5 6.1 0.00 0.03 0.00 81 1016.9
20260504183014 51 1 3.5 7.0 0.00 0.03 0.00 81 1016.9
20260504182507 51 6 3.5 7.0 0.00 0.03 0.00 81 1016.8
20260504182010 51 6 2.6 6.1 0.00 0.03 0.00 82 1016.7
20260504181519 51 343 2.6 6.1 0.00 0.03 0.00 82 1016.7
20260504181004 51 349 2.6 6.1 0.00 0.03 0.00 82 1016.7
20260504180509 51 3 3.5 6.1 0.00 0.03 0.00 82 1016.7
20260504180019 51 349 1.7 6.1 0.00 0.03 0.00 82 1016.6
20260504175510 51 360 2.6 6.1 0.00 0.03 0.00 82 1016.6
20260504174513 51 346 3.5 6.1 0.00 0.03 0.00 83 1016.6
20260504173506 51 7 3.5 6.1 0.00 0.03 0.00 83 1016.6
20260504172507 51 333 3.5 7.0 0.00 0.03 0.00 83 1016.5
20260504172008 51 334 4.3 7.0 0.00 0.03 0.00 84 1016.5
20260504171011 51 328 3.5 7.8 0.00 0.03 0.00 84 1016.5
20260504151002 50 2 5.2 9.6 0.00 0.03 0.00 86 1015.8
20260504150511 50 349 5.2 8.7 0.00 0.03 0.00 86 1015.9
20260504141010 51 350 6.1 10.4 0.00 0.03 0.00 85 1015.6
20260504140503 51 337 5.2 12.2 0.00 0.03 0.00 85 1015.6
20260504110508 53 337 7.0 15.6 0.00 0.03 0.03 84 1014.5
20260504100503 53 11 7.8 18.2 0.00 0.03 0.03 84 1013.7
20260504082007 53 12 8.7 19.1 0.02 0.02 0.02 84 1012.3
20260504081517 53 358 8.7 19.1 0.02 0.02 0.02 84 1012.2
20260504081010 53 1 8.7 19.1 0.02 0.02 0.02 83 1012.1
20260504080508 53 13 9.6 20.0 0.01 0.01 0.01 83 1012.1
20260504050504 57 351 12.2 24.3 0.00 0.00 0.00 68 1010.8
20260504050012 57 9 11.3 19.1 0.00 0.00 0.00 68 1010.7
20260504045503 57 49 6.1 19.1 0.00 0.00 0.00 68 1010.8
20260504045007 58 343 7.8 23.5 0.00 0.00 0.00 68 1010.5
20260504044514 58 21 9.6 23.5 0.00 0.00 0.00 66 1010.4
20260504044006 59 323 7.8 18.2 0.00 0.00 0.00 67 1010.4
20260504043513 58 14 7.8 18.2 0.00 0.00 0.00 68 1010.6
20260504043011 57 65 10.4 19.1 0.00 0.00 0.00 67 1010.7
20260504042510 57 16 8.7 21.7 0.00 0.00 0.00 68 1010.8
20260504042005 57 349 13.0 21.7 0.00 0.00 0.00 67 1010.7
20260504041508 57 351 9.6 23.5 0.00 0.00 0.00 67 1010.6
20260504041004 57 349 11.3 23.5 0.00 0.00 0.00 67 1010.7
20260504040503 58 7 8.7 21.7 0.00 0.00 0.00 67 1010.6
20260504040008 58 359 12.2 23.5 0.00 0.00 0.00 67 1010.8
20260504035504 57 4 11.3 23.5 0.00 0.00 0.00 68 1010.7
20260504035004 57 16 8.7 21.7 0.00 0.00 0.00 68 1010.7
20260504034507 57 359 12.2 21.7 0.00 0.00 0.00 67 1010.8
20260504034003 57 14 8.7 20.9 0.00 0.01 0.00 68 1011.0
20260504033506 57 320 9.6 23.5 0.00 0.01 0.00 68 1010.9
20260504033003 57 15 12.2 25.2 0.00 0.01 0.00 68 1010.9
20260504032503 57 6 13.0 25.2 0.00 0.02 0.00 68 1010.9
20260504032003 57 6 12.2 23.5 0.00 0.03 0.00 68 1011.0
20260504031503 57 351 12.2 28.7 0.00 0.03 0.00 67 1010.9
20260504031003 57 353 10.4 28.7 0.00 0.03 0.00 68 1010.9
20260504030503 58 4 13.9 26.1 0.00 0.04 0.00 67 1010.8
20260504030005 59 332 16.5 26.1 0.00 0.04 0.00 65 1010.7
20260504025504 58 15 13.9 26.1 0.00 0.07 0.00 66 1010.8
20260504025003 59 352 14.8 26.9 0.00 0.07 0.00 66 1010.9
20260504024509 58 39 13.9 27.8 0.00 0.07 0.00 66 1010.9
20260504024005 59 335 17.4 27.8 0.00 0.07 0.00 66 1010.9
20260504023503 58 358 14.8 26.1 0.00 0.07 0.00 66 1011.1
20260504023014 58 315 18.2 28.7 0.00 0.07 0.00 65 1011.1
20260504022503 58 31 13.9 28.7 0.00 0.07 0.00 66 1011.1
20260504022008 58 9 13.9 30.4 0.00 0.07 0.00 67 1011.5
20260504021513 58 3 17.4 30.4 0.00 0.07 0.00 66 1011.5
20260504021004 58 350 16.5 28.7 0.00 0.07 0.00 67 1011.7
20260504020503 58 326 14.8 21.7 0.00 0.08 0.00 68 1011.7
20260504020004 58 333 11.3 25.2 0.00 0.08 0.00 70 1011.8
20260504015504 57 345 13.0 25.2 0.00 0.08 0.00 70 1011.8
20260504015006 57 346 11.3 25.2 0.00 0.08 0.00 70 1011.9
20260504014508 57 2 10.4 20.0 0.00 0.08 0.00 73 1012.0
20260504014005 56 350 10.4 26.9 0.00 0.08 0.00 73 1012.2
20260504013507 56 335 11.3 26.9 0.00 0.08 0.00 73 1012.2
20260504013008 57 348 13.9 26.1 0.00 0.09 0.00 75 1012.1
20260504012504 56 328 15.6 22.6 0.00 0.11 0.00 74 1012.1
20260504012006 56 343 11.3 24.3 0.00 0.14 0.00 74 1012.1
20260504011503 56 349 10.4 24.3 0.00 0.15 0.00 76 1012.1
20260504011012 56 338 13.9 25.2 0.00 0.17 0.00 75 1012.1
20260504010504 56 339 14.8 25.2 0.00 0.19 0.00 74 1011.9
20260504010023 56 344 8.7 26.9 0.00 0.22 0.00 75 1011.9
20260504005507 56 18 10.4 26.9 0.00 0.25 0.00 76 1012.0
20260504005004 56 8 12.2 28.7 0.00 0.27 0.00 76 1011.9
20260504004507 55 21 12.2 28.7 0.00 0.29 0.00 76 1011.8
20260504004003 55 350 14.8 28.7 0.00 0.37 0.00 76 1011.9
20260504003503 56 359 10.4 22.6 0.00 0.40 0.00 77 1012.1
20260504003010 56 328 9.6 22.6 0.00 0.44 0.00 78 1012.0
20260504002504 55 9 9.6 26.9 0.00 0.45 0.00 78 1012.1
20260504002007 54 343 13.0 26.9 0.00 0.47 0.00 79 1012.0
20260504001515 55 2 12.2 26.9 0.00 0.48 0.00 78 1012.1
20260504001003 55 333 13.9 26.9 0.00 0.48 0.00 77 1012.2
20260504000507 55 351 9.6 20.0 0.00 0.49 0.00 79 1012.3
20260504000010 55 341 12.2 22.6 0.00 0.51 0.00 78 1012.3
20260503235507 55 40 10.4 22.6 0.00 0.55 0.00 79 1012.2
20260503235008 54 6 12.2 20.9 0.00 0.58 0.00 78 1011.9
20260503234508 54 8 11.3 23.5 0.00 0.59 0.00 79 1012.0
20260503234010 53 9 9.6 26.9 0.00 0.60 0.00 79 1012.1
20260503233508 54 358 11.3 26.9 0.00 0.61 0.00 79 1012.0
20260503233009 53 351 12.2 21.7 0.00 0.61 0.00 80 1012.1
20260503232506 53 22 12.2 21.7 0.00 0.61 0.00 79 1012.3
20260503232007 53 17 9.6 19.1 0.00 0.61 0.00 79 1012.4
20260503231514 53 16 11.3 19.1 0.00 0.61 0.00 79 1012.4
20260503231008 53 12 11.3 19.1 0.00 0.61 0.00 80 1012.7
20260503230509 53 22 9.6 20.0 0.00 0.61 0.00 80 1012.7
20260503230019 53 346 10.4 20.9 0.00 0.61 0.00 80 1012.6
20260503225507 53 8 7.8 20.9 0.00 0.61 0.00 80 1012.6
20260503225014 53 10 10.4 20.0 0.00 0.61 0.00 80 1012.6
20260503224527 53 15 10.4 18.2 0.00 0.61 0.00 79 1012.7
20260503224010 54 344 10.4 18.2 0.00 0.61 0.00 80 1012.7
20260503223507 53 49 9.6 18.2 0.00 0.61 0.00 81 1012.5
20260503223018 53 21 9.6 18.2 0.00 0.61 0.00 81 1012.4
20260503222507 52 15 8.7 18.2 0.00 0.61 0.00 81 1012.3
20260503222007 52 16 9.6 15.6 0.00 0.61 0.00 81 1012.3
20260503221516 52 2 7.0 19.1 0.00 0.61 0.00 82 1012.3